Weather History for Dickinson, ND

Change the Weather History Date:

Wednesday, September 11, 2013

  Actual Average Record
Temperature  
Mean Temperature 66 °F 59 °F  
Max Temperature 80 °F 74 °F 95 °F (1939)
Min Temperature 52 °F 45 °F 26 °F (1940)
Degree Days  
Heating Degree Days 0 7  
Month to date heating degree days 1 60  
Since 1 July heating degree days 41 146  
Cooling Degree Days 1 1  
Month to date cooling degree days 64 22  
Year to date cooling degree days 376 408  
Growing Degree Days 17 (Base 50)    
Moisture  
Dew Point 50 °F    
Average Humidity 58    
Maximum Humidity 86    
Minimum Humidity 30    
Precipitation  
Precipitation 0.00 in 0.05 in 1.94 in (1978)
Month to date precipitation 2.21 0.54  
Year to date precipitation 15.38 12.83  
Sea Level Pressure  
Sea Level Pressure 30.16 in    
Wind  
Wind Speed 4 mph (North)    
Max Wind Speed 7 mph    
Max Gust Speed 8 mph    
Visibility 10 miles    
Events      
T = Trace of Precipitation, MM = Missing Value Source: NWS Daily Summary

Daily Weather History Graph

Daily Weather History Graph

Search for Another Location

Airport:

Trip Planner

Search our weather history database for the weather conditions in past years. The results will help you decide how hot, cold, wet, or windy it might be!

Date:

Astronomy

Sep. 11, 2013 Rise Set
Actual Time 6:24 AM MDT 7:10 PM MDT
Civil Twilight 5:53 AM MDT 7:40 PM MDT
Nautical Twilight 5:16 AM MDT 8:17 PM MDT
Astronomical Twilight 4:38 AM MDT 8:55 PM MDT
Moon 1:18 PM MDT (9/11) 10:44 PM MDT (9/11)
Length of Visible Light 13h 47m
Length of Day
12h 46m
Waxing Crescent, 39% of the Moon is Illuminated
Sep 11
Waxing Crescent
Sep 12
First Quarter
Sep 19
Full
Sep 26
Last Quarter
Oct 4
New

Hourly Weather History & Observations

Time (MDT) Temp. Dew Point Humidity Pressure Visibility Wind Dir Wind Speed Gust Speed Precip Events Conditions
12:56 AM 59.0 °F 51.1 °F 75% 30.05 in 10.0 mi West 4.6 mph - N/A   Clear
1:56 AM 57.9 °F 51.1 °F 78% 30.06 in 10.0 mi Calm Calm - N/A   Scattered Clouds
2:56 AM 57.0 °F 52.0 °F 83% 30.06 in 10.0 mi Calm Calm - N/A   Mostly Cloudy
3:56 AM 59.0 °F 53.1 °F 81% 30.08 in 10.0 mi Calm Calm - N/A   Overcast
4:56 AM 57.9 °F 54.0 °F 87% 30.08 in 10.0 mi WSW 3.5 mph - N/A   Mostly Cloudy
5:56 AM 57.9 °F 54.0 °F 87% 30.10 in 10.0 mi West 4.6 mph - N/A   Overcast
6:56 AM 59.0 °F 54.0 °F 83% 30.12 in 10.0 mi Calm Calm - N/A   Overcast
7:56 AM 61.0 °F 55.9 °F 83% 30.14 in 10.0 mi WSW 3.5 mph - N/A   Mostly Cloudy
8:56 AM 66.9 °F 57.0 °F 70% 30.14 in 10.0 mi Calm Calm - N/A   Overcast
9:56 AM 69.1 °F 55.0 °F 61% 30.16 in 10.0 mi NNW 3.5 mph - N/A   Overcast
10:56 AM 71.1 °F 53.1 °F 53% 30.17 in 10.0 mi North 4.6 mph - N/A   Overcast
11:56 AM 73.9 °F 52.0 °F 46% 30.18 in 10.0 mi North 6.9 mph - N/A   Overcast
12:56 PM 75.9 °F 51.1 °F 42% 30.17 in 10.0 mi NNE 3.5 mph - N/A   Mostly Cloudy
1:56 PM 78.1 °F 48.9 °F 36% 30.17 in 10.0 mi NE 8.1 mph - N/A   Mostly Cloudy
2:56 PM 79.0 °F 46.0 °F 31% 30.17 in 10.0 mi Calm Calm - N/A   Partly Cloudy
3:56 PM 79.0 °F 45.0 °F 30% 30.16 in 10.0 mi North 8.1 mph - N/A   Clear
4:56 PM 78.1 °F 45.0 °F 31% 30.17 in 10.0 mi North 10.4 mph - N/A   Partly Cloudy
5:56 PM 75.9 °F 46.0 °F 35% 30.17 in 10.0 mi North 8.1 mph - N/A   Clear
6:56 PM 68.0 °F 46.9 °F 47% 30.19 in 10.0 mi NNE 8.1 mph - N/A   Clear
7:56 PM 64.9 °F 46.0 °F 50% 30.21 in 10.0 mi NE 3.5 mph - N/A   Clear
8:56 PM 60.1 °F 46.9 °F 62% 30.24 in 10.0 mi NE 5.8 mph - N/A   Unknown
9:56 PM 59.0 °F 46.0 °F 62% 30.25 in 10.0 mi East 3.5 mph - N/A   Clear
10:56 PM 55.9 °F 46.0 °F 69% 30.26 in 10.0 mi ENE 4.6 mph - N/A   Clear
11:56 PM 52.0 °F 45.0 °F 77% 30.27 in 10.0 mi Calm Calm - N/A   Clear